Location: Castelbiague
(43.0361°N, 0.9246°E)
Time: 21:16:18
(UTC+00:00)

HODOYOSHI 3 - Visible Passes

Search period start: 24 January 2022 00:00
Search period end: 03 February 2022 00:00
Orbit: 608 x 658 km, 97.7° (Epoch: 24 January)

Date Brightness Start Highest point End Pass type
(mag) Time Alt. Az. Time Alt. Az. Time Alt. Az.
26 Jan ? 06:02:44 10° E 06:04:30 12° ENE 06:06:16 10° NE visible
27 Jan ? 06:22:25 10° ESE 06:25:36 19° ENE 06:28:46 10° NNE visible
28 Jan ? 06:42:49 10° SE 06:46:45 30° ENE 06:50:41 10° N visible
31 Jan ? 06:12:07 10° E 06:14:43 15° ENE 06:17:18 10° NNE visible
01 Feb ? 06:32:15 10° ESE 06:35:51 24° ENE 06:39:26 10° NNE visible
